Location: *
(51.2167°N, 10.0667°E)
Time: 05:42:57
(UTC+00:00)

Lacrosse 5 rocket - Pass Details

Date: 12 December 2019
Orbit: 464 x 633 km, 57.0° (Epoch: 17 January)

Event Time Altitude Azimuth Distance (km) Brightness Sun altitude
Rises 16:47:03 0° 248° (WSW) 2,803 7.0 -13.9°
Reaches altitude 10° 16:49:22 10° 251° (WSW) 1,878 5.5 -14.2°
Maximum altitude 16:53:36 66° 334° (NNW) 605 1.5 -14.8°
Enters shadow 16:55:46 26° 51° (NE) 1,082 2.3 -15.2°
